Regional Weather Roundup
Issued by NWS Portland, ME

Current Version | Previous Version | Graphics & Text | Print | Product List | Glossary On
Versions: 1 2 3 4 5 6 7 8 9 10 11 12 13 14 15 16 17 18 19 20 21 22 23 24 25 26 27 28 29 30 31 32 33 34 35 36 37 38 39 40 41 42 43 44 45 46 47 48 49 50
000
ASUS41 KGYX 302210
RWRGYX
WEATHER ROUNDUP FOR MAINE AND NEW HAMPSHIRE
NATIONAL WEATHER SERVICE GRAY ME
500 PM EST FRI JAN 30 2015

MEZ002-005-006-010-012-015-018-020-021-024-026-027-029-302300-
MAINE

CITY           SKY/WX    TMP DP  RH WIND       PRES   REMARKS
PORTLAND       LGT SNOW  31  27  85 NW7       29.70F FOG
SANFORD        CLOUDY    28  25  86 CALM      29.70F
BAR HARBOR     CLOUDY    34  34 100 CALM      29.71F
WISCASSET      LGT SNOW  29  27  92 CALM      29.69F VSB 1
ROCKLAND       CLOUDY    36  36 100 E3        29.66F
FRYEBURG       LGT SNOW  29  26  89 CALM      29.71S FOG
LEWISTONAUBURN CLOUDY    28  27  93 N8        29.69F
AUGUSTA        SNOW      27  25  92 NW9       29.69F VSB 1/2
WATERVILLE     CLOUDY    28  23  80 N7        29.67F
BANGOR         SNOW      33  32  96 E7        29.71F VSB 1/2
GREENVILLE       N/A     26  24  92 N5        29.66S
MILLINOCKET    LGT SNOW  28  26  92 CALM      29.75S VSB 1
HOULTON        LGT SNOW  25  21  85 S3        29.76S FOG
PRESQUE ISLE   CLOUDY    27  21  80 SE3       29.78R
FRENCHVILLE    LGT SNOW  24  21  88 N3        29.75S FOG
CARIBOU        LGT SNOW  26  23  88 CALM      29.77R FOG
$$

NHZ002-005-008-009-011-012-014-302300-
NEW HAMPSHIRE

CITY           SKY/WX    TMP DP  RH WIND       PRES   REMARKS
PORTSMOUTH     LGT SNOW  31  27  88 NW7       29.71R FOG
ROCHESTER      LGT SNOW  30  26  85 NW9       29.70S FOG
NASHUA         FLURRIES  32  27  82 NW12      29.73S
MANCHESTER     LGT SNOW  31  27  85 NW12      29.71S FOG
CONCORD        LGT SNOW  30  25  81 NW16      29.74R WCI  19
LACONIA        CLOUDY    28  21  74 NW9G16    29.71R
PLYMOUTH       FLURRIES  26  23  89 W10       29.76R WCI  16
BERLIN         LGT SNOW  25  18  74 NW8       29.74R
WHITEFIELD     LGT SNOW  21  16  81 NW9       29.79R
JAFFREY        LGT SNOW  28  21  75 VRB7      29.72R
KEENE          MOCLDY    28  18  64 NW13G18   29.78R WCI  18
LEBANON        FLURRIES  24  15  68 N15G25    29.82R WCI  11
MT WASHINGTON  SNOW       3   3 100 N18         N/A  VSB 1/16WCI -17
$$

VTZ005-007-008-302300-
VERMONT

CITY           SKY/WX    TMP DP  RH WIND       PRES   REMARKS
ST JOHNSBURY     N/A     19  11  70 MISG      29.83R
MONTPELIER     LGT SNOW  13   8  81 NW17G23   29.88R WCI  -4
BURLINGTON     LGT SNOW  14   7  73 N9        29.99R
$$

MAZ007-012-024-CTZ003-RIZ002-NYZ038-NYZ072-302300-
SOUTHERN NEW ENGLAND AND NY

CITY           SKY/WX    TMP DP  RH WIND       PRES   REMARKS
BOSTON         CLOUDY    32  27  81 NW9       29.72R
WORCESTER      LGT SNOW  28  24  85 NW14      29.71R FOG     WCI  17
NANTUCKET      CLOUDY    35  32  88 NW12      29.67S
PROVIDENCE     FLURRIES  33  26  75 NW12G20   29.74R
HARTFORD       MOCLDY    31  17  56 NW16G23   29.80R WCI  20
ALBANY         MOCLDY    23  12  62 NW23G35   29.92R WCI   7
NEW YORK CITY  PTCLDY    34  17  50 NW23G31   29.87R
$$

ANZ081-ANZ082-ANZ150-NHZ014-MEZ023>029-302300-
COASTAL MARINE OBSERVATIONS

STATION/POSITION TIME  TEMP    WIND        PRES    WAVE
                       AIR SEA DIR/SP/G            HT/PER
                 (UTC) (F)     (DEG/KT/KT) (MB)    (FT/S)
MOUNT DESERT ROC 2200   40                 1004.5F
MATINICUS ROCK   2200          130/ 15/ 16 1004.1F
PORTLAND WX BUOY 2150   31 39  350/ 16/ 17 1005.0F   4/ 6
WELLS            2100   29 30  340/  6/  9 1005.3F
ISLE OF SHOALS   2200   31     330/ 15/ 16 1005.3R
JEFFREYS LEDGE   2151      43                N/A     4/11
CASHES LEDGE BUO 2150   38 44  170/  6/  8 1004.0F   4/ 5
$$

.............KEY..............
   WCI - WIND CHILL
   TC  - TEMPERATURE IN CELSIUS
   VSB - VISIBILITY IN MILES
   HX  - HEAT INDEX
   FAIR- INDICATES FEW OR NO CLOUDS BELOW 12,000 FT, WITH NO
         SIGNIFICANT WEATHER AND/OR OBSTRUCTIONS TO VISIBILITY.





USA.gov is the U.S. government's official web portal to all federal, state and local government web resources and services.